Powrót do katalogu

STARLINK-4774

AktywnyŁącznośćVLEO
NORAD 56138·PAYLOAD·🇺🇸 United States

Wystrzelony Mar 29, 2023 z Cape Canaveral Space Force Station

Loading…

Następne Przeloty (najbliższe 24 godziny)

TLE

ŚwieżeSource: CelesTrak SupGP

Epoka: Sep 14, 2026, 13:19 UTC

1 56138C 23046AX  26257.55534722 -.00003932  00000+0 -14243-3 0  2575
2 56138  42.9995 160.5626 0001075 248.7951  67.9400 15.27572748    13

Śledź STARLINK-4774 w czasie rzeczywistym z AllMySat

Download on the App Store